[[{"header":{"parameterUnit":"m.s-1","parameterCategory":1,"la1":30.2991,"la2":30.254,"lo1":-89.0895,"lo2":-89.0444,"dy":0.0017,"dx":0.0017,"nx":28,"ny":28,"refTime":"2024-10-06T03:00:00:Z","depth":0,"parameterNumber":2,"parameterNumberName":"U-component_of_WINDS"},"data":[0,0,0,0,0,0,0,0,0,0,0,0,0,0,0,0,0,0,0,0,0,0,0,0,0,0,0,0,0,0,0,0,0,0,0,0,0,0,0,0,0,0,0,0,0,0,0,0,0,0,0,0,0,0,0,0,0,0,-4.2611,-4.2612,0,-4.2714,-4.2715,-4.2716,-4.261,-4.2606,-4.2602,-4.2598,-4.2708,-4.2714,-4.2721,0,0,0,0,0,0,0,0,0,0,0,0,0,-4.2325,-4.2331,-4.2611,-4.2612,-4.2613,-4.2714,-4.2715,-4.2716,-4.2611,-4.2606,-4.2601,-4.2596,-4.2705,-4.2713,-4.2721,0,0,0,0,0,0,0,0,0,0,0,0,0,-4.2441,-4.2333,-4.261,-4.2572,-4.257,-4.2713,-4.2715,-4.2717,-4.2612,-4.2606,-4.26,-4.2594,-4.2703,-4.2712,-4.2723,-4.2909,0,0,-4.2754,-4.2758,0,0,0,0,0,0,0,0,-4.2434,-4.2451,-4.2577,-4.2575,-4.2573,-4.2643,-4.2654,-4.2781,-4.2614,-4.2596,-4.2598,-4.2591,-4.2691,-4.2702,-4.2735,-4.2914,-4.2919,-4.2754,-4.2761,-4.2765,-4.2768,0,0,0,0,0,0,0,-4.2426,-4.2446,-4.2651,-4.2579,-4.2576,-4.2551,-4.2561,-4.2678,-4.2677,-4.2597,-4.259,-4.2603,-4.2689,-4.2725,-4.2737,-4.2921,-4.2754,-4.2763,-4.2769,-4.2773,-4.3259,-4.3266,0,0,0,0,0,0,-4.2422,-4.244,-4.2648,-4.2654,-4.2487,-4.2561,-4.2572,-4.2627,-4.2676,-4.2677,-4.2608,-4.2598,-4.2711,-4.2725,-4.274,-4.2963,-4.2765,-4.2774,-4.278,-4.3252,-4.3261,-4.3268,0,0,0,0,0,0,-4.2416,-4.2442,-4.2644,-4.2545,-4.2569,-4.2573,-4.2635,-4.2632,-4.2668,-4.2684,-4.2684,-4.2646,-4.2707,-4.2726,-4.2868,-4.2965,-4.2779,-4.2788,-4.3244,-4.3255,-4.3264,-4.341,0,0,0,0,0,0,-4.2409,-4.244,-4.2511,-4.2548,-4.2575,-4.277,-4.2641,-4.2638,-4.2686,-4.2673,-4.2719,-4.2721,-4.2703,-4.2853,-4.2878,-4.2976,-4.2796,-4.3236,-4.3249,-4.3261,-4.3396,-4.3424,-4.3447,0,0,0,0,0,-4.2399,-4.2548,-4.2515,-4.2541,-4.2663,-4.2775,-4.2791,-4.2767,-4.2694,-4.2765,-4.2775,-4.2719,-4.295,-4.2869,-4.2896,-4.2998,-4.3229,-4.3245,-4.326,-4.3385,-4.3418,-4.3446,0,0,0,0,0,0,-4.2524,-4.2553,-4.2516,-4.2681,-4.2727,-4.2757,-4.2847,-4.2803,-4.2871,-4.2856,-4.2824,-4.2836,-4.2987,-4.3006,-4.2915,-4.3182,-4.3078,-4.3099,-4.3164,-4.3196,-4.322,-4.3214,-4.2805,0,0,0,0,0,-4.2571,-4.2659,-4.2679,-4.2823,-4.2848,-4.2844,-4.2892,-4.2869,-4.2915,-4.2934,-4.2954,-4.3002,-4.3085,-4.3141,-4.3218,-4.3398,-4.3407,-4.3481,-4.3507,-4.3527,-4.3547,-4.3644,-4.3678,-4.3318,-4.3318,-4.3318,0,0,-4.2669,-4.2695,-4.2753,-4.2849,-4.2881,-4.2974,-4.286,-4.2963,-4.3032,-4.295,-4.3085,-4.3102,-4.3153,-4.3315,-4.3387,-4.3336,-4.3648,-4.3547,-4.3563,-4.3572,-4.3664,-4.3698,-4.3728,-4.3329,-4.3327,-4.3325,0,0,-4.2895,-4.2923,-4.3046,-4.3081,-4.3131,-4.3127,-4.3156,-4.3194,-4.3201,-4.3336,-4.3276,-4.3358,-4.3502,-4.3541,-4.358,-4.382,-4.3772,-4.3846,-4.398,-4.4075,-4.4103,-4.4128,-4.4215,-4.4247,-4.3865,-4.3865,-4.3866,0,-4.3011,-4.3147,-4.3116,-4.3223,-4.3268,-4.3196,-4.3321,-4.3356,-4.343,-4.3463,-4.3404,-4.3583,-4.3612,-4.3782,-4.3841,-4.3874,-4.3908,-4.3842,-4.4101,-4.4126,-4.4149,-4.4232,-4.4265,-4.3874,-4.3873,-4.3872,-4.3871,0,-4.3288,-4.3384,-4.3477,-4.3549,-4.3604,-4.372,-4.3707,-4.3767,-4.3739,-4.3741,-4.388,-4.3912,-4.3995,-4.4033,-4.4008,-4.4201,-4.4168,-4.4106,-4.4001,-4.4193,-4.427,-4.4301,-4.3887,-4.3884,-4.3881,-4.3879,0,0,-4.3598,-4.3649,-4.3685,-4.3716,-4.3766,-4.384,-4.3952,-4.4032,-4.4084,-4.4137,-4.4232,-4.4355,-4.4297,-4.4341,-4.4319,-4.4403,-4.4592,-4.433,-4.4331,-4.4379,-4.4809,-4.4857,-4.4894,-4.4559,-4.4565,-4.457,-4.4805,0,-4.3827,-4.4022,-4.3996,-4.4184,-4.4273,-4.4204,-4.4303,-4.4344,-4.435,-4.4426,-4.4432,-4.452,-4.4437,-4.4463,-4.4542,-4.4553,-4.4679,-4.4535,-4.4649,-4.4654,-4.4641,-4.4934,-4.4985,-4.5205,-4.4835,-4.484,-4.4843,0,-4.412,-4.4182,-4.4379,-4.4414,-4.445,-4.4539,-4.461,-4.4683,-4.4729,-4.4727,-4.4776,-4.4739,-4.4853,-4.4745,-4.4903,-4.4806,-4.4851,-4.4863,-4.4871,-4.4882,-4.4762,-4.4955,-4.5275,-4.5309,-4.489,-4.4887,-4.4883,0,-4.4329,-4.4461,-4.4596,-4.4625,-4.4669,-4.4733,-4.4755,-4.4794,-4.4844,-4.4906,-4.4938,-4.5013,-4.5056,-4.5115,-4.51,-4.5022,-4.5262,-4.5152,-4.5265,-4.5266,-4.5321,-4.5318,-4.5654,-4.5346,-4.5346,-4.5345,-4.5345,0,-4.4588,-4.4712,-4.469,-4.4774,-4.491,-4.4879,-4.5015,-4.5028,-4.5064,-4.5149,-4.5094,-4.5176,-4.5149,-4.523,-4.5219,-4.5352,-4.5371,-4.5373,-4.537,-4.538,-4.538,-4.5411,-4.5396,-4.5354,-4.5352,-4.535,-4.5349,0,-4.4846,-4.4836,-4.4979,-4.5008,-4.5018,-4.5118,-4.5143,-4.5222,-4.5222,-4.5331,-4.5354,-4.5355,-4.5447,-4.5437,-4.554,-4.5532,-4.5698,-4.5675,-4.5683,-4.5678,-4.5793,-4.5783,-4.6162,-4.6211,-4.587,-4.5873,-4.5876,0,-4.5013,-4.5106,-4.5145,-4.5198,-4.5223,-4.5309,-4.5359,-4.5332,-4.5387,-4.5445,-4.5518,-4.5604,-4.5672,-4.5822,-4.5832,-4.5911,-4.589,-4.6017,-4.5902,-4.591,-4.5895,-4.589,-4.59,-4.6041,-4.6045,-4.6048,-4.6051,0,-4.5311,-4.5302,-4.5375,-4.5448,-4.5508,-4.5564,-4.5615,-4.5661,-4.5639,-4.5704,-4.5796,-4.5849,-4.5953,-4.604,-4.6114,-4.6137,-4.6092,-4.6087,-4.6117,-4.613,-4.6132,-4.6134,-4.5747,-4.6079,-4.6076,-4.6074,-4.6072,-4.6071,-4.553,-4.561,-4.565,-4.5734,-4.5768,-4.5817,-4.5892,-4.5901,-4.5977,-4.6059,-4.6038,-4.6144,-4.6187,-4.6281,-4.6312,-4.6394,-4.6348,-4.6392,-4.6404,-4.6416,-4.643,-4.6117,-4.6408,-4.6407,-4.6406,-4.6405,-4.6405,0,-4.5827,-4.5849,-4.5926,-4.5998,-4.6064,-4.6013,-4.6066,-4.6125,-4.6218,-4.6261,-4.6329,-4.6435,-4.6519,-4.6536,-4.6616,-4.6679,-4.666,-4.6702,-4.6698,-4.6704,-4.6466,-4.6432,-4.6715,-4.6715,-4.6715,-4.6715,-4.6715,-4.6715,-4.599,-4.6122,-4.6117,-4.6267,-4.6288,-4.6389,-4.6424,-4.6469,-4.6503,-4.6624,-4.6693,-4.6703,-4.6736,-4.6818,-4.6893,-4.6896,-4.6929,-4.6979,-4.6974,-4.6752,-4.6721,-4.6691,-4.666,-4.6986,-4.6986,-4.7206,-4.7208,-4.7209]},{"header":{"parameterUnit":"m.s-1","parameterCategory":1,"la1":30.2991,"la2":30.254,"lo1":-89.0895,"lo2":-89.0444,"dy":0.0017,"dx":0.0017,"nx":28,"ny":28,"refTime":"2024-10-06T03:00:00:Z","depth":0,"parameterNumber":3,"parameterNumberName":"V-component_of_WINDS"},"data":[0,0,0,0,0,0,0,0,0,0,0,0,0,0,0,0,0,0,0,0,0,0,0,0,0,0,0,0,0,0,0,0,0,0,0,0,0,0,0,0,0,0,0,0,0,0,0,0,0,0,0,0,0,0,0,0,0,0,-4.7103,-4.7104,0,-4.7143,-4.7143,-4.7144,-4.7065,-4.7063,-4.706,-4.7058,-4.7095,-4.7099,-4.7102,0,0,0,0,0,0,0,0,0,0,0,0,0,-4.6957,-4.696,-4.7103,-4.7104,-4.7104,-4.7143,-4.7143,-4.7144,-4.7066,-4.7063,-4.706,-4.7057,-4.7094,-4.7098,-4.7102,0,0,0,0,0,0,0,0,0,0,0,0,0,-4.7011,-4.6961,-4.7103,-4.707,-4.7068,-4.7143,-4.7143,-4.7144,-4.7067,-4.7063,-4.7059,-4.7055,-4.7093,-4.7098,-4.7103,-4.7211,0,0,-4.7118,-4.7121,0,0,0,0,0,0,0,0,-4.7008,-4.7016,-4.7075,-4.7073,-4.707,-4.7095,-4.7105,-4.7166,-4.7067,-4.7067,-4.7058,-4.7053,-4.7098,-4.7103,-4.7118,-4.7213,-4.7214,-4.7119,-4.7122,-4.7124,-4.7126,0,0,0,0,0,0,0,-4.7004,-4.7014,-4.7119,-4.7075,-4.7073,-4.7052,-4.7055,-4.7116,-4.7103,-4.7067,-4.7061,-4.7067,-4.7096,-4.7114,-4.7119,-4.7215,-4.7119,-4.7123,-4.7126,-4.7128,-4.7398,-4.7402,0,0,0,0,0,0,-4.7005,-4.7011,-4.7117,-4.712,-4.7029,-4.7058,-4.7062,-4.7091,-4.7103,-4.7101,-4.707,-4.7063,-4.7107,-4.7113,-4.712,-4.7246,-4.7124,-4.7129,-4.7132,-4.7394,-4.7399,-4.7404,0,0,0,0,0,0,-4.7002,-4.7015,-4.7116,-4.7064,-4.7075,-4.7064,-4.7098,-4.7094,-4.7111,-4.7105,-4.7102,-4.7091,-4.7104,-4.7113,-4.7189,-4.7247,-4.7131,-4.7136,-4.7389,-4.7396,-4.7401,-4.7501,0,0,0,0,0,0,-4.6998,-4.7015,-4.7057,-4.7066,-4.7079,-4.7186,-4.7102,-4.7097,-4.712,-4.7112,-4.7124,-4.7122,-4.7102,-4.7182,-4.7194,-4.7251,-4.714,-4.7384,-4.7392,-4.74,-4.7493,-4.751,-4.7525,0,0,0,0,0,-4.6993,-4.7083,-4.7059,-4.7073,-4.7131,-4.7189,-4.7196,-4.7172,-4.7125,-4.7167,-4.7163,-4.7122,-4.7238,-4.719,-4.7203,-4.7263,-4.738,-4.739,-4.7399,-4.7485,-4.7507,-4.7524,0,0,0,0,0,0,-4.708,-4.7083,-4.7057,-4.7153,-4.7172,-4.7176,-4.7228,-4.7195,-4.7227,-4.7217,-4.7185,-4.7188,-4.7271,-4.7274,-4.7221,-4.7368,-4.7301,-4.7314,-4.7362,-4.7383,-4.7398,-4.7396,-4.7144,0,0,0,0,0,-4.711,-4.7159,-4.7158,-4.7242,-4.7253,-4.7239,-4.7264,-4.7243,-4.7261,-4.7268,-4.727,-4.7288,-4.7328,-4.7355,-4.7392,-4.7492,-4.7493,-4.754,-4.7556,-4.7569,-4.758,-4.7633,-4.7653,-4.7434,-4.7434,-4.7434,0,0,-4.7173,-4.7181,-4.7214,-4.726,-4.7272,-4.7322,-4.7246,-4.7302,-4.7338,-4.7276,-4.7348,-4.735,-4.7368,-4.7456,-4.7495,-4.7462,-4.7641,-4.7581,-4.7592,-4.7596,-4.7644,-4.7665,-4.7684,-4.7441,-4.7439,-4.7438,0,0,-4.7313,-4.7325,-4.7396,-4.7409,-4.7429,-4.7418,-4.7435,-4.7445,-4.7444,-4.7516,-4.747,-4.7512,-4.7583,-4.7597,-4.7613,-4.7758,-4.7721,-4.777,-4.7854,-4.7906,-4.7923,-4.7938,-4.7989,-4.8008,-4.7781,-4.7782,-4.7782,0,-4.7389,-4.7463,-4.7436,-4.7495,-4.7516,-4.7463,-4.7533,-4.7548,-4.7578,-4.7593,-4.7555,-4.7642,-4.7651,-4.7741,-4.7776,-4.7792,-4.7809,-4.7769,-4.7923,-4.7938,-4.7951,-4.8,-4.8019,-4.7788,-4.7787,-4.7786,-4.7786,0,-4.7555,-4.7606,-4.7661,-4.7692,-4.772,-4.7784,-4.7765,-4.7796,-4.7773,-4.7766,-4.784,-4.7847,-4.7885,-4.7904,-4.7882,-4.7992,-4.797,-4.7929,-4.7861,-4.7979,-4.8023,-4.8042,-4.7796,-4.7794,-4.7792,-4.7791,0,0,-4.7751,-4.7766,-4.7787,-4.78,-4.7817,-4.7856,-4.7917,-4.7954,-4.7981,-4.8003,-4.8053,-4.8113,-4.8074,-4.8093,-4.8072,-4.8117,-4.823,-4.8069,-4.8069,-4.8098,-4.835,-4.8382,-4.8404,-4.8205,-4.8209,-4.8211,-4.8349,0,-4.789,-4.7997,-4.7973,-4.8078,-4.8125,-4.8074,-4.8127,-4.8143,-4.8138,-4.8176,-4.817,-4.8213,-4.8159,-4.817,-4.8212,-4.8207,-4.828,-4.8197,-4.825,-4.8253,-4.8248,-4.8427,-4.8461,-4.859,-4.8366,-4.8369,-4.8371,0,-4.8066,-4.8096,-4.8206,-4.8214,-4.8233,-4.8281,-4.8313,-4.835,-4.8366,-4.8359,-4.838,-4.8349,-4.8408,-4.834,-4.8421,-4.8365,-4.8385,-4.8386,-4.8391,-4.8395,-4.8319,-4.8436,-4.8631,-4.865,-4.8398,-4.8396,-4.8394,0,-4.8198,-4.8265,-4.8339,-4.8352,-4.8364,-4.8399,-4.8406,-4.8418,-4.8441,-4.8468,-4.8483,-4.8516,-4.8535,-4.8561,-4.8539,-4.8492,-4.8623,-4.8554,-4.8618,-4.8619,-4.8649,-4.8647,-4.885,-4.8662,-4.8662,-4.8661,-4.8661,0,-4.8355,-4.8424,-4.8399,-4.8445,-4.852,-4.8491,-4.8566,-4.8566,-4.8577,-4.8621,-4.8579,-4.8621,-4.859,-4.8629,-4.8612,-4.8681,-4.869,-4.8685,-4.868,-4.8689,-4.869,-4.8702,-4.8693,-4.8666,-4.8665,-4.8664,-4.8664,0,-4.8516,-4.8502,-4.8579,-4.8584,-4.8587,-4.8642,-4.8645,-4.8687,-4.8678,-4.8734,-4.8746,-4.8732,-4.8776,-4.8757,-4.8802,-4.8791,-4.888,-4.8863,-4.8875,-4.887,-4.8936,-4.893,-4.9154,-4.9181,-4.8976,-4.8978,-4.898,0,-4.8618,-4.8669,-4.868,-4.8707,-4.8716,-4.876,-4.8783,-4.8757,-4.8783,-4.8805,-4.8843,-4.8883,-4.8914,-4.8985,-4.8979,-4.9013,-4.8996,-4.9072,-4.9001,-4.9008,-4.8997,-4.8994,-4.8999,-4.9086,-4.9089,-4.9091,-4.9092,0,-4.8799,-4.8789,-4.8826,-4.886,-4.8889,-4.8915,-4.8936,-4.896,-4.8934,-4.8965,-4.901,-4.9033,-4.908,-4.9119,-4.9149,-4.9154,-4.9119,-4.9115,-4.9131,-4.9141,-4.9146,-4.9144,-4.8914,-4.911,-4.9108,-4.9107,-4.9106,-4.9105,-4.8933,-4.8976,-4.899,-4.9032,-4.9045,-4.9066,-4.9105,-4.9102,-4.9139,-4.9175,-4.9156,-4.9208,-4.922,-4.9257,-4.9267,-4.9306,-4.9276,-4.93,-4.9306,-4.9313,-4.9322,-4.914,-4.9311,-4.9311,-4.931,-4.931,-4.9309,0,-4.9112,-4.9118,-4.9157,-4.9188,-4.9221,-4.9185,-4.9207,-4.9236,-4.9282,-4.9297,-4.9328,-4.9378,-4.9416,-4.9413,-4.9447,-4.9479,-4.9464,-4.9489,-4.9486,-4.9488,-4.9347,-4.9329,-4.9501,-4.9501,-4.9501,-4.9501,-4.9501,-4.9501,-4.9209,-4.928,-4.9272,-4.9349,-4.9354,-4.9405,-4.942,-4.9439,-4.9451,-4.9509,-4.9541,-4.9538,-4.9546,-4.958,-4.9613,-4.9611,-4.9626,-4.9657,-4.9649,-4.9517,-4.9498,-4.948,-4.9463,-4.9661,-4.9661,-4.9787,-4.9788,-4.9789]}]]